This demonstration page uses our WeatherBlox Daily Observations layout. Learn more.

Left ArrowRight Arrow

Hourly Observations for October 23, 2021

Temp ( °F °C ) Dew Point ( °F °C ) Humidity (%) Winds ( mph kmh ) Pressure ( in mb ) Visibility ( mi km ) Precip ( " mm )
12:15 am 00:15 Clear 44 6.8 38 3.5 80 80 ENE 9 15 29.92 1013 10 16 N/A
12:35 am 00:35 Clear 44 6.4 38 3.1 80 80 ENE 9 15 29.93 1013 10 16 N/A
12:55 am 00:55 Clear 43 6 37 2.7 80 80 ENE 10 17 29.93 1013 10 16 N/A
1:15 am 01:15 Clear 42 5.7 37 2.5 80 80 ENE 8 13 29.93 1014 10 16 N/A
1:35 am 01:35 Clear 42 5.5 36 2.3 80 80 ENE 9 15 29.93 1014 10 16 N/A
1:55 am 01:55 Clear 41 5.1 36 2 81 81 ENE 6 9 29.94 1014 10 16 N/A
2:15 am 02:15 Clear 41 5 36 2 81 81 ENE 7 11 29.93 1013 10 16 N/A
2:35 am 02:35 Clear 40 4.7 36 2 83 83 ENE 8 13 29.92 1013 10 16 N/A
2:55 am 02:55 Clear 40 4.7 36 2 83 83 ENE 7 11 29.92 1013 10 16 N/A
3:15 am 03:15 Clear 40 4.6 36 2 83 83 ENE 7 11 29.92 1013 10 16 N/A
3:35 am 03:35 Clear 40 4.5 36 2 84 84 ENE 8 13 29.91 1013 10 16 N/A
3:55 am 03:55 Clear 40 4.5 36 2 84 84 ENE 7 11 29.91 1013 10 16 N/A
4:15 am 04:15 Clear 40 4.2 36 2 86 86 NE 8 13 29.92 1013 10 16 N/A
4:35 am 04:35 Clear 40 4.2 36 2.1 86 86 NE 7 11 29.92 1013 10 16 N/A
4:55 am 04:55 Clear 39 4 36 2 87 87 ENE 7 11 29.91 1013 10 16 N/A
5:15 am 05:15 Clear 39 4 36 2 87 87 ENE 8 13 29.91 1013 10 16 N/A
5:35 am 05:35 Clear 39 4 36 2 87 87 ENE 6 9 29.92 1013 10 16 N/A
5:55 am 05:55 Clear 39 3.7 36 2 89 89 ENE 8 13 29.92 1013 10 16 N/A
6:15 am 06:15 Clear 39 3.7 36 2 89 89 ENE 8 13 29.92 1013 10 16 N/A
6:35 am 06:35 Clear 39 3.8 36 2 88 88 ENE 9 15 29.91 1013 10 16 N/A
6:55 am 06:55 Clear 39 3.7 36 2 89 89 ENE 9 15 29.92 1013 10 16 N/A
7:15 am 07:15 Clear 39 3.7 36 2 89 89 E 8 13 29.91 1013 10 16 N/A
7:35 am 07:35 Clear 38 3.5 35 1.9 89 89 ENE 9 15 29.91 1013 10 16 N/A
7:55 am 07:55 Clear 38 3.5 36 2 90 90 E 8 13 29.91 1013 10 16 N/A
8:15 am 08:15 Sunny 38 3.5 36 2 90 90 E 8 13 29.92 1013 10 16 N/A
8:35 am 08:35 Sunny 39 4 37 2.5 90 90 ENE 8 13 29.92 1013 10 16 N/A
8:55 am 08:55 Sunny 40 4.5 37 2.6 88 88 ENE 10 17 29.91 1013 10 16 N/A
9:15 am 09:15 Sunny 41 4.9 37 3 88 88 ENE 12 19 29.91 1013 10 16 N/A
9:35 am 09:35 Sunny 42 5.6 38 3.2 85 85 E 12 19 29.90 1013 10 16 N/A
9:55 am 09:55 Partly Cloudy 44 6.5 38 3.4 81 81 E 15 24 29.88 1012 10 16 N/A
10:15 am 10:15 Partly Cloudy 45 7.4 39 4 79 79 E 16 26 29.87 1011 10 16 N/A
10:35 am 10:35 Sunny 47 8.3 40 4.2 76 76 E 14 22 29.87 1011 10 16 N/A
10:55 am 10:55 Sunny 48 9.1 40 4.6 74 74 E 13 20 29.85 1011 10 16 N/A
11:15 am 11:15 Sunny 50 10 41 4.8 70 70 E 14 22 29.83 1010 10 16 N/A
11:35 am 11:35 Sunny 52 11.1 42 5.3 68 68 E 13 20 29.82 1010 10 16 N/A
11:55 am 11:55 Partly Cloudy 53 11.6 42 5.3 66 66 E 13 20 29.82 1010 10 16 N/A
12:15 pm 12:15 Mostly Cloudy 54 12.1 42 5.6 65 65 E 10 17 29.80 1009 10 16 N/A
12:35 pm 12:35 Cloudy 55 12.7 43 6.3 65 65 ESE 10 17 29.80 1009 10 16 N/A
12:55 pm 12:55 Cloudy 55 12.7 44 6.4 66 66 E 12 19 29.80 1009 10 16 N/A
1:15 pm 13:15 Cloudy 55 12.8 44 6.6 66 66 E 8 13 29.79 1009 10 16 N/A
1:35 pm 13:35 Cloudy 56 13.4 45 7.1 66 66 E 12 19 29.77 1008 10 16 N/A
1:55 pm 13:55 Cloudy 56 13.3 45 7.3 67 67 E 10 17 29.76 1008 10 16 N/A
2:15 pm 14:15 Cloudy 57 13.7 46 7.7 67 67 ESE 7 11 29.75 1007 10 16 N/A
2:35 pm 14:35 Cloudy 57 13.8 46 7.9 68 68 E 8 13 29.75 1007 10 16 N/A
2:55 pm 14:55 Cloudy 57 14.1 47 8.4 69 69 E 8 13 29.74 1007 10 16 N/A
3:15 pm 15:15 Cloudy 58 14.2 47 8.3 68 68 E 10 17 29.73 1007 10 16 N/A
3:35 pm 15:35 Cloudy 58 14.2 47 8.3 68 68 E 13 20 29.72 1006 10 16 N/A
3:55 pm 15:55 Cloudy 57 14.1 46 7.9 66 66 E 12 19 29.72 1006 10 16 N/A
4:15 pm 16:15 Cloudy 57 14 47 8.2 68 68 E 15 24 29.71 1006 10 16 N/A
4:35 pm 16:35 Cloudy 56 13.2 47 8.2 72 72 E 15 24 29.72 1007 10 16 N/A
4:55 pm 16:55 Cloudy 54 12.3 47 8.5 78 78 E 15 24 29.72 1007 10 16 N/A
5:15 pm 17:15 Cloudy 54 12.1 47 8.4 78 78 E 15 24 29.72 1007 10 16 N/A
5:35 pm 17:35 Cloudy 55 12.5 46 8 74 74 E 14 22 29.73 1007 10 16 N/A
5:55 pm 17:55 Cloudy 55 12.5 47 8.2 75 75 E 10 17 29.72 1006 10 16 N/A
6:15 pm 18:15 Cloudy 55 12.5 46 8 74 74 E 15 24 29.72 1006 10 16 N/A
6:35 pm 18:35 Cloudy 54 12.3 46 8 75 75 E 13 20 29.71 1006 10 16 N/A
6:55 pm 18:55 Cloudy 54 12.3 46 8 75 75 E 10 17 29.71 1006 10 16 N/A
7:15 pm 19:15 Cloudy 54 12.2 47 8.1 76 76 E 6 9 29.71 1006 10 16 N/A
7:35 pm 19:35 Cloudy 54 12.3 46 7.8 74 74 E 10 17 29.70 1006 10 16 N/A
7:55 pm 19:55 Cloudy 55 12.7 46 7.6 71 71 E 12 19 29.70 1006 10 16 N/A
8:15 pm 20:15 Cloudy 55 12.8 46 7.8 72 72 E 13 20 29.70 1006 10 16 N/A
8:35 pm 20:35 Cloudy 55 12.7 47 8.1 74 74 E 10 17 29.68 1005 10 16 N/A
8:55 pm 20:55 Cloudy 55 12.7 46 8 73 73 E 10 17 29.69 1005 10 16 N/A
9:15 pm 21:15 Cloudy 55 12.7 47 8.2 74 74 E 13 20 29.68 1005 10 16 N/A
9:35 pm 21:35 Cloudy 55 12.5 48 9.1 80 80 E 12 19 29.68 1005 10 16 N/A
9:55 pm 21:55 Cloudy 54 12.4 48 9.1 80 80 E 13 20 29.69 1005 10 16 N/A
10:15 pm 22:15 Cloudy 54 12.1 49 9.3 83 83 E 10 17 29.68 1005 10 16 N/A
10:35 pm 22:35 Cloudy 53 11.7 50 10 89 89 E 12 19 29.69 1005 7 11 N/A
10:55 pm 22:55 Cloudy with Mist and Fog 52 11.3 50 10.1 92 92 E 12 19 29.68 1005 4 6 N/A
11:15 pm 23:15 Cloudy with Mist and Fog 52 11 50 10.2 95 95 E 7 11 29.68 1005 3 4 N/A
11:35 pm 23:35 Cloudy with Mist and Fog 51 10.8 50 10.2 96 96 E 8 13 29.69 1005 2 3 N/A
11:55 pm 23:55 Cloudy with Mist and Fog 51 10.7 50 10.2 97 97 ENE 9 15 29.68 1005 2 3 N/A

Powered by AerisWeather